CZ-4 DEB, 26132

Orbit data source: Space-Track

CZ-4 DEB, 26132 is space debris in SSO originally from a launch on Thu, 14 Oct 1999 UTC launched from the Taiyaun Space Center, China (TSC). Debris objects in space refer to the collection of defunct objects orbiting the Earth. Examples of debris include non-operational satellites, rocket bodies, and fragments generated from explosions, collisions, or faulty payload assembly.

Loading next visibility...
Identifier
26132, 1999-057U
Orbit
SSO
Country
Flag of CNCN / PRC
Related business
Manufacturer
Unknown
Mission
Spacecraft
Bus & Motor
Unknown
Mass
Unknown
Launch date (UTC)
1999-10-14 (26 years ago)
Launch vehicle
Unknown
Launch site
Taiyaun Space Center, China (TSC)
Object type
Payload
Rocket body
Debris
Shape & HBR
Unknown shape, 0.1 m
Radar Cross Section
Small (<0.1 m²)

Expand to show TLE details & history
Last TLE update: 20 hours ago

TLE from 20 hours ago
0 CZ-4 DEB
1 26132U 99057U   26036.82565940  .00009806  00000-0  21500-2 0  9993
2 26132  98.6418 126.8174 0102084 318.9258 163.7078 14.54631020348791
Epoch: 2026-02-05T19:48Z
TLE epoch observation values (Epoch: 2026-02-05T19:48:56.972Z)
Latitude
56.15248°
Longitude
-113.36478°
Altitude
789.439 km
Speed
7.428 km/s
True Right ascension
21h 19m 22s
True Declination
55° 59' 38"
Sunlit
Object was in daylight at epoch
Visualization orbit readout
Latitude
Unknown
Longitude
Unknown
Altitude
Unknown
Speed
Unknown
Apparent Right ascension
Unknown
Apparent Declination
Unknown
Sunlit
N/A
Visualization observer readout
Local Sidereal Time
17:45:40
Azimuth
Unknown
Elevation
Unknown
Doppler factor
Unknown
Orbital elements
Apogee altitude
780.007 km
Perigee altitude
635.337 km
Semi-major axis
7,085.809 km
Eccentricity
0.01021
Inclination
98.6418°
RAAN
126.8174°
Arg. of periapsis
318.9258°
True anomaly
164.032°
Mean anomaly
163.7078°
Eccentric anomaly
163.87029°
Mean motion
3.63881 °/min
Orbital period
98.93 mins
BSTAR
0.00215
Loading maneuver chart data...
Computing Atmospheric mass density...
Loading historical data...
Loading historical data...
Loading historical data...
Loading historical data...
Loading historical data...
Loading historical data...
Loading historical data...

Documentation

Showing up to 5 results
|